K0WOI Weather Reports


time (UTC)temp
F
wind
direction
speed
knots
gust
knots
rain 1hr
in
rain 24hr
in
rain mn
in
humidity
%
barometer
mb
20260504202956 80 335 2.6 5.2 0.00 0.00 0.00 31 999.7
20260504202453 81 255 4.3 6.1 0.00 0.00 0.00 33 999.7
20260504201950 80 312 4.3 6.1 0.00 0.00 0.00 33 999.7
20260504201447 81 262 2.6 4.3 0.00 0.00 0.00 32 999.7
20260504200945 82 278 1.7 2.6 0.00 0.00 0.00 37 999.6
20260504200441 81 326 5.2 7.0 0.00 0.00 0.00 31 999.6
20260504195938 80 319 1.7 4.3 0.00 0.00 0.00 33 999.5
20260504195434 78 334 4.3 6.1 0.00 0.00 0.00 31 999.6
20260504194931 78 330 2.6 2.6 0.00 0.00 0.00 31 999.5
20260504194427 79 264 2.6 2.6 0.00 0.00 0.00 31 999.3
20260504193923 80 304 1.7 1.7 0.00 0.00 0.00 30 999.5
20260504193420 82 316 6.1 8.7 0.00 0.00 0.00 28 999.6
20260504192919 82 310 3.5 7.8 0.00 0.00 0.00 30 999.3
20260504192415 81 329 2.6 2.6 0.00 0.00 0.00 28 999.4
20260504191915 82 218 4.3 6.1 0.00 0.00 0.00 27 999.4
20260504191412 82 322 2.6 4.3 0.00 0.00 0.00 28 999.4
20260504190907 81 220 3.5 5.2 0.00 0.00 0.00 26 999.2
20260504190403 81 291 2.6 2.6 0.00 0.00 0.00 29 999.5
20260504185901 81 335 7.0 9.6 0.00 0.00 0.00 27 999.6
20260504185357 82 309 1.7 2.6 0.00 0.00 0.00 28 999.6
20260504184853 81 257 2.6 4.3 0.00 0.00 0.00 27 999.8
20260504184349 81 277 3.5 5.2 0.00 0.00 0.00 28 999.8
20260504183845 80 271 1.7 1.7 0.00 0.00 0.00 27 999.7
20260504183343 80 267 4.3 5.2 0.00 0.00 0.00 27 999.7
20260504182840 79 311 0.9 0.9 0.00 0.00 0.00 29 999.8
20260504182337 80 207 3.5 6.1 0.00 0.00 0.00 30 999.6
20260504181834 80 228 8.7 11.3 0.00 0.00 0.00 29 999.5
20260504181332 80 316 4.3 5.2 0.00 0.00 0.00 31 999.8
20260504180830 80 324 7.8 11.3 0.00 0.00 0.00 28 999.7
20260504180328 79 256 2.6 4.3 0.00 0.00 0.00 32 999.6
20260504175826 79 350 2.6 5.2 0.00 0.00 0.00 32 1000.0
20260504175323 79 267 2.6 4.3 0.00 0.00 0.00 33 999.6
20260504174821 79 236 4.3 6.1 0.00 0.00 0.00 32 999.8
20260504174318 79 285 2.6 2.6 0.00 0.00 0.00 33 999.9
20260504173815 79 255 3.5 5.2 0.00 0.00 0.00 31 999.8
20260504173311 79 229 6.1 7.8 0.00 0.00 0.00 31 999.9
20260504172809 79 264 2.6 4.3 0.00 0.00 0.00 34 999.9
20260504172305 79 245 2.6 4.3 0.00 0.00 0.00 32 999.8
20260504171801 78 217 5.2 7.0 0.00 0.00 0.00 32 1000.0
20260504171258 78 243 2.6 5.2 0.00 0.00 0.00 32 999.9
20260504170755 79 286 4.3 5.2 0.00 0.00 0.00 30 1000.1
20260504170252 79 270 4.3 6.1 0.00 0.00 0.00 33 999.9
20260504160211 77 215 6.1 9.6 0.00 0.00 0.00 37 999.9
20260504151139 72 245 2.6 2.6 0.00 0.00 0.00 45 1000.5
20260504150636 71 238 5.2 6.1 0.00 0.00 0.00 45 1000.5
20260504150133 70 273 0.9 0.9 0.00 0.00 0.00 48 1000.3
20260504141102 63 287 1.7 2.6 0.00 0.00 0.00 57 1001.0
20260504140558 62 271 0.9 0.9 0.00 0.00 0.00 58 1000.9
20260504130522 53 322 0.0 0.0 0.00 0.00 0.00 72 1001.5
20260504110410 49 320 0.0 0.9 0.00 0.00 0.00 76 1001.9
20260504100326 47 319 0.9 0.9 0.00 0.00 0.00 84 1002.4
20260504081720 49 319 0.0 0.0 0.00 0.00 0.00 77 1003.3
20260504081216 49 319 0.0 0.0 0.00 0.00 0.00 77 1003.5
20260504080713 49 319 0.0 0.9 0.00 0.00 0.00 74 1003.5
20260504080209 48 319 0.9 0.9 0.00 0.00 0.00 77 1003.7
20260504070137 49 318 0.0 0.0 0.00 0.00 0.00 80 1004.7
20260504050526 49 317 0.0 0.0 0.00 0.00 0.00 81 1005.8
20260504050023 49 317 0.0 0.0 0.00 0.00 0.00 81 1005.8
20260504045519 49 317 0.0 0.0 0.00 0.00 0.00 78 1005.9
20260504045015 49 317 0.0 0.0 0.00 0.00 0.00 77 1006.1
20260504044513 49 317 0.0 0.0 0.00 0.00 0.00 75 1005.9
20260504044009 50 317 0.0 0.0 0.00 0.00 0.00 78 1006.2
20260504043506 50 317 0.0 0.0 0.00 0.00 0.00 78 1005.9
20260504043004 50 317 0.0 0.0 0.00 0.00 0.00 77 1006.0
20260504042501 51 317 0.0 0.0 0.00 0.00 0.00 78 1005.9
20260504041957 51 317 0.0 0.0 0.00 0.00 0.00 76 1006.1
20260504041453 51 317 0.0 0.0 0.00 0.00 0.00 75 1006.1
20260504040949 51 317 0.0 0.0 0.00 0.00 0.00 74 1006.1
20260504040447 52 317 0.0 0.0 0.00 0.00 0.00 71 1006.1
20260504035943 52 317 0.0 0.0 0.00 0.00 0.00 70 1006.1
20260504035441 53 317 0.0 0.0 0.00 0.00 0.00 69 1006.4
20260504034937 54 317 0.0 0.0 0.00 0.00 0.00 67 1006.4
20260504034435 55 317 0.0 0.0 0.00 0.00 0.00 64 1006.5
20260504033932 55 317 0.0 0.0 0.00 0.00 0.00 63 1006.5
20260504033429 56 317 0.0 0.0 0.00 0.00 0.00 61 1006.9
20260504032926 58 317 0.0 0.0 0.00 0.00 0.00 54 1006.7
20260504032423 59 317 0.0 0.0 0.00 0.00 0.00 51 1006.9
20260504031920 60 317 0.0 0.0 0.00 0.00 0.00 43 1006.9
20260504031417 60 317 0.0 0.0 0.00 0.00 0.00 43 1006.8
20260504030914 59 317 0.0 0.0 0.00 0.00 0.00 44 1006.9
20260504030411 59 317 0.0 0.0 0.00 0.00 0.00 44 1006.8
20260504025906 58 317 0.0 0.0 0.00 0.00 0.00 44 1006.9
20260504025404 59 317 0.0 0.0 0.00 0.00 0.00 45 1007.1
20260504024900 59 316 0.0 0.0 0.00 0.00 0.00 49 1007.1
20260504024356 60 316 0.0 0.0 0.00 0.00 0.00 43 1006.9
20260504023854 61 316 0.0 0.0 0.00 0.00 0.00 41 1006.8
20260504023350 61 316 0.0 0.0 0.00 0.00 0.00 39 1007.0
20260504022846 62 316 0.0 0.0 0.00 0.00 0.00 39 1006.8
20260504022343 62 316 0.0 0.0 0.00 0.00 0.00 38 1007.1
20260504021839 63 316 0.0 0.9 0.00 0.00 0.00 37 1006.9
20260504021337 63 315 0.0 0.9 0.00 0.00 0.00 37 1007.0
20260504020834 63 315 0.0 0.0 0.00 0.00 0.00 36 1007.0
20260504020331 64 315 0.0 0.0 0.00 0.00 0.00 35 1006.8
20260504015827 64 314 0.0 0.9 0.00 0.00 0.00 35 1006.7
20260504015323 64 313 0.0 0.0 0.00 0.00 0.00 35 1006.8
20260504014819 65 312 0.9 0.9 0.00 0.00 0.00 34 1006.9
20260504014315 65 310 0.0 0.0 0.00 0.00 0.00 34 1006.7
20260504013814 66 307 0.0 0.9 0.00 0.00 0.00 34 1006.8
20260504013311 66 303 0.0 0.0 0.00 0.00 0.00 33 1006.8
20260504012807 67 297 0.9 0.9 0.00 0.00 0.00 32 1006.7
20260504012305 68 302 0.0 0.9 0.00 0.00 0.00 31 1006.8
20260504011803 68 303 0.0 0.0 0.00 0.00 0.00 30 1006.6
20260504011259 68 295 0.9 1.7 0.00 0.00 0.00 29 1006.7
20260504010754 69 297 0.9 0.9 0.00 0.00 0.00 29 1006.6
20260504010250 69 274 0.9 0.9 0.00 0.00 0.00 28 1006.8
20260504005747 70 286 1.7 1.7 0.00 0.00 0.00 28 1006.7
20260504005244 70 285 1.7 1.7 0.00 0.00 0.00 27 1006.7
20260504004742 70 311 0.9 1.7 0.00 0.00 0.00 27 1006.7
20260504004239 71 311 0.9 0.9 0.00 0.00 0.00 27 1006.8
20260504003735 71 311 0.9 0.9 0.00 0.00 0.00 25 1006.7
20260504003232 71 311 0.0 0.9 0.00 0.00 0.00 25 1006.9
20260504002729 72 307 1.7 1.7 0.00 0.00 0.00 25 1006.7
20260504002225 72 300 1.7 1.7 0.00 0.00 0.00 25 1006.8
20260504001723 72 306 0.9 0.9 0.00 0.00 0.00 25 1006.8
20260504001220 73 210 6.1 7.0 0.00 0.00 0.00 23 1006.7
20260504000717 72 285 1.7 1.7 0.00 0.00 0.00 23 1006.8
20260504000214 73 267 1.7 1.7 0.00 0.00 0.00 24 1006.8
20260503235712 73 263 2.6 2.6 0.00 0.00 0.00 25 1006.8
20260503235209 74 297 1.7 1.7 0.00 0.00 0.00 25 1006.8
20260503234706 75 313 0.0 0.9 0.00 0.00 0.00 23 1006.6
20260503234205 75 310 2.6 4.3 0.00 0.00 0.00 25 1006.8
20260503233701 74 309 0.9 0.9 0.00 0.00 0.00 24 1007.0
20260503233157 74 237 4.3 5.2 0.00 0.00 0.00 24 1006.7
20260503232654 75 311 1.7 1.7 0.00 0.00 0.00 23 1007.0
20260503232152 74 296 1.7 1.7 0.00 0.00 0.00 26 1006.8
20260503231650 74 321 1.7 1.7 0.00 0.00 0.00 23 1007.0
20260503231145 74 314 0.9 1.7 0.00 0.00 0.00 27 1007.0
20260503230642 75 306 0.9 0.9 0.00 0.00 0.00 25 1006.9
20260503230140 75 279 0.9 1.7 0.00 0.00 0.00 23 1007.0
20260503225637 75 290 0.9 0.9 0.00 0.00 0.00 22 1007.0
20260503225136 75 322 0.9 1.7 0.00 0.00 0.00 21 1007.2
20260503224634 75 305 2.6 2.6 0.00 0.00 0.00 21 1007.0
20260503224132 75 302 1.7 2.6 0.00 0.00 0.00 24 1006.9
20260503223630 76 290 4.3 5.2 0.00 0.00 0.00 22 1007.0
20260503223126 77 318 2.6 2.6 0.00 0.00 0.00 21 1007.2
20260503222624 75 318 0.9 0.9 0.00 0.00 0.00 25 1007.1
20260503222121 74 339 1.7 1.7 0.00 0.00 0.00 24 1007.0
20260503221619 74 337 1.7 2.6 0.00 0.00 0.00 24 1007.2
20260503221116 75 236 4.3 5.2 0.00 0.00 0.00 23 1007.3
20260503220613 74 310 1.7 1.7 0.00 0.00 0.00 27 1007.1
20260503220110 74 321 2.6 2.6 0.00 0.00 0.00 24 1007.2
20260503215607 74 298 1.7 1.7 0.00 0.00 0.00 24 1007.2
20260503215103 73 325 3.5 4.3 0.00 0.00 0.00 24 1007.1
20260503214602 73 310 5.2 6.1 0.00 0.00 0.00 24 1007.3
20260503214058 74 317 0.9 0.9 0.00 0.00 0.00 25 1007.2
20260503213557 74 305 0.9 0.9 0.00 0.00 0.00 28 1007.3
20260503213053 74 246 2.6 2.6 0.00 0.00 0.00 26 1007.3
20260503212550 74 324 1.7 2.6 0.00 0.00 0.00 26 1007.3
20260503212047 75 288 1.7 4.3 0.00 0.00 0.00 24 1007.3
20260503211545 75 338 1.7 1.7 0.00 0.00 0.00 25 1007.3
20260503211040 76 301 1.7 1.7 0.00 0.00 0.00 26 1007.4
20260503210537 76 323 2.6 2.6 0.00 0.00 0.00 26 1007.4
20260503210033 75 336 5.2 7.0 0.00 0.00 0.00 25 1007.3
20260503205530 75 306 2.6 2.6 0.00 0.00 0.00 25 1007.4
20260503205026 75 306 1.7 1.7 0.00 0.00 0.00 25 1007.3
20260503204523 77 283 1.7 2.6 0.00 0.00 0.00 27 1007.6
20260503204020 75 294 0.9 1.7 0.00 0.00 0.00 27 1007.3
20260503203517 75 309 2.6 2.6 0.00 0.00 0.00 25 1007.4